EW8978 Weather Reports


time (UTC)temp
F
wind
direction
speed
knots
gust
knots
rain 1hr
in
rain 24hr
in
rain mn
in
humidity
%
barometer
mb
20260507070041 0 0.0 0.0 0.00 0.00 0.00 1004.2
20260507064532 0 0.0 0.0 0.00 0.00 0.00 1003.6
20260507063040 0 0.0 0.0 0.00 0.00 0.00 1003.8
20260507061527 0 0.0 0.0 0.00 0.00 0.00 1004.0
20260507060034 0 0.0 0.0 0.00 0.00 0.00 1004.2
20260507054514 0 0.0 0.0 0.00 0.00 0.00 1004.4
20260507053008 0 0.0 0.0 0.00 0.00 0.00 1004.8
20260507051508 0 0.0 0.0 0.00 0.00 0.00 1004.9
20260507050035 0 0.0 0.0 0.00 0.00 0.00 1005.1
20260507044526 0 0.0 0.0 0.00 0.00 0.00 1005.1
20260507043020 0 0.0 0.0 0.00 0.00 0.00 1005.0
20260507041515 0 0.0 0.0 0.00 0.00 0.00 1005.2
20260507040011 0 0.0 0.0 0.00 0.00 0.00 1005.4
20260507034520 0 0.0 0.0 0.00 0.00 0.00 1005.2
20260507033104 0 0.0 0.0 0.00 0.00 0.00 1005.2
20260507031609 0 0.0 0.0 0.00 0.00 0.00 1005.4
20260507030051 0 0.0 0.0 0.00 0.00 0.00 1005.1
20260507024547 0 0.0 0.0 0.00 0.00 0.00 1005.3
20260507023040 0 0.0 0.0 0.00 0.00 0.00 1005.8
20260507021538 0 0.0 0.0 0.00 0.00 0.00 1006.0
20260507020041 0 0.0 0.0 0.00 0.00 0.00 1006.0
20260507014527 0 0.0 0.0 0.00 0.00 0.00 1006.1
20260507013038 0 0.0 0.0 0.00 0.00 0.00 1006.1
20260507011516 0 0.0 0.0 0.00 0.00 0.00 1006.0
20260507010011 0 0.0 0.0 0.00 0.00 0.00 1006.3
20260507004507 0 0.0 0.0 0.00 0.00 0.00 1006.2
20260507003100 0 0.0 0.0 0.00 0.00 0.00 1006.0
20260507001557 0 0.0 0.0 0.00 0.00 0.00 1006.1
20260507000052 0 0.0 0.0 0.00 0.00 0.00 1006.1
20260506234549 0 0.0 0.0 0.00 0.00 0.00 1006.0
20260506233056 0 0.0 0.0 0.00 0.00 0.00 1006.3
20260506231540 0 0.0 0.0 0.00 0.00 0.00 1006.7
20260506230032 0 0.0 0.0 0.00 0.00 0.00 1006.8
20260506224528 0 0.0 0.0 0.00 0.00 0.00 1006.9
20260506223023 0 0.0 0.0 0.00 0.00 0.00 1006.9
20260506221520 58 217 24.3 30.4 0.00 0.00 0.00 90 1006.8
20260506220027 58 210 22.6 30.4 0.00 0.00 0.00 90 1006.8
20260506214519 58 218 20.9 28.7 0.00 0.00 0.00 90 1006.9
20260506213017 58 213 24.3 29.5 0.00 0.00 0.00 90 1007.1
20260506211546 58 215 24.3 30.4 0.00 0.00 0.00 90 1007.3
20260506210045 58 214 26.1 31.3 0.00 0.00 0.00 89 1007.1
20260506204513 58 212 23.5 31.3 0.00 0.00 0.00 89 1007.3
20260506203012 58 209 25.2 33.0 0.00 0.00 0.00 89 1007.6
20260506201508 58 215 24.3 28.7 0.00 0.00 0.00 88 1007.7
20260506200013 58 217 21.7 27.8 0.00 0.00 0.00 88 1007.8
20260506194508 58 218 22.6 28.7 0.00 0.00 0.00 88 1008.1
20260506194504 58 215 22.6 28.7 0.00 0.00 0.00 88 1008.1
20260506193003 58 194 22.6 28.7 0.00 0.00 0.00 88 1008.2
20260506191559 58 214 22.6 32.2 0.00 0.00 0.00 87 1008.1
20260506190059 58 207 22.6 29.5 0.00 0.00 0.00 88 1008.2
20260506184604 58 213 25.2 30.4 0.00 0.00 0.00 87 1008.5
20260506183054 59 214 23.5 30.4 0.00 0.00 0.00 87 1008.7
20260506181550 59 209 25.2 31.3 0.00 0.00 0.00 87 1009.0
20260506180049 60 214 24.3 29.5 0.00 0.00 0.00 86 1009.3
20260506174549 59 211 24.3 31.3 0.00 0.00 0.00 87 1009.2
20260506173058 59 198 25.2 30.4 0.00 0.00 0.00 87 1009.3
20260506171514 59 218 25.2 29.5 0.00 0.00 0.00 87 1009.4
20260506170012 59 200 24.3 30.4 0.00 0.00 0.00 87 1009.9
20260506164508 59 213 24.3 30.4 0.00 0.00 0.00 87 1010.0
20260506163005 59 212 24.3 29.5 0.00 0.00 0.00 86 1010.3
20260506161503 59 198 23.5 28.7 0.00 0.00 0.00 87 1010.3
20260506160006 60 219 24.3 29.5 0.00 0.00 0.00 85 1010.6
20260506154558 59 216 24.3 29.5 0.00 0.00 0.00 86 1010.8
20260506153101 59 219 20.9 26.1 0.00 0.00 0.00 86 1011.1
20260506151556 60 222 20.0 27.8 0.00 0.00 0.00 85 1011.2
20260506150054 59 213 21.7 26.9 0.00 0.00 0.00 87 1010.9
20260506144551 59 207 20.9 27.8 0.00 0.00 0.00 86 1010.8
20260506143049 59 219 20.0 27.8 0.00 0.00 0.00 87 1010.7
20260506141605 58 220 23.5 28.7 0.00 0.00 0.00 88 1010.8
20260506140047 59 218 22.6 27.8 0.00 0.00 0.00 87 1011.1
20260506134543 59 219 20.9 26.9 0.00 0.00 0.00 86 1011.0
20260506133041 59 224 19.1 26.9 0.00 0.00 0.00 87 1010.9
20260506131540 58 213 18.2 26.9 0.00 0.00 0.00 88 1010.9
20260506130040 58 202 19.1 24.3 0.00 0.00 0.00 88 1010.9
20260506124509 58 220 18.2 26.9 0.00 0.00 0.00 88 1011.0
20260506123009 58 221 20.9 27.8 0.00 0.00 0.00 89 1010.8
20260506121503 58 205 18.2 25.2 0.00 0.00 0.00 88 1011.2
20260506120003 58 207 14.8 22.6 0.00 0.00 0.00 89 1011.3
20260506114503 58 222 16.5 24.3 0.00 0.00 0.00 87 1011.2
20260506113109 58 200 14.8 25.2 0.00 0.00 0.00 88 1011.2
20260506111555 58 229 12.2 22.6 0.00 0.00 0.00 89 1011.2
20260506110056 58 222 13.9 20.0 0.00 0.00 0.00 89 1011.2
20260506104555 58 203 11.3 21.7 0.00 0.00 0.00 90 1011.1
20260506103053 57 218 13.0 22.6 0.00 0.00 0.00 90 1011.0
20260506101549 0 0.0 0.0 0.00 0.00 0.00 1011.1
20260506100013 0 0.0 0.0 0.00 0.00 0.00 1011.1
20260506094526 0 0.0 0.0 0.00 0.00 0.00 1011.2
20260506093009 0 0.0 0.0 0.00 0.00 0.00 1011.3
20260506091508 0 0.0 0.0 0.00 0.00 0.00 1011.1
20260506090007 0 0.0 0.0 0.00 0.00 0.00 1011.1
20260506084507 0 0.0 0.0 0.00 0.00 0.00 1011.3
20260506083042 0 0.0 0.0 0.00 0.00 0.00 1011.4
20260506081537 0 0.0 0.0 0.00 0.00 0.00 1011.3
20260506073003 0 0.0 0.0 0.00 0.00 0.00 1011.3
20260506071506 0 0.0 0.0 0.00 0.00 0.00 1011.3